| time (UTC) | temp F | wind direction | speed MPH | gust MPH | rain 1hr in | rain 24hr in | rain mn in | humidity % | barometer mb |
| 20260508052107 | 60 | 128 | 0.0 | 1.0 | 0.00 | 0.00 | 0.00 | 84 | 1019.6 |
| 20260508051115 | 61 | 0.0 | 0.0 | 0.00 | 0.00 | 0.00 | 79 | 1019.6 | |
| 20260508050107 | 61 | 0.0 | 0.0 | 0.00 | 0.00 | 0.00 | 80 | 1019.3 | |
| 20260508044107 | 61 | 0.0 | 0.0 | 0.00 | 0.00 | 0.00 | 82 | 1019.1 | |
| 20260508043114 | 61 | 0.0 | 0.0 | 0.00 | 0.00 | 0.00 | 80 | 1019.2 | |
| 20260508042127 | 62 | 0.0 | 0.0 | 0.00 | 0.00 | 0.00 | 79 | 1019.3 | |
| 20260508041134 | 61 | 0.0 | 0.0 | 0.00 | 0.00 | 0.00 | 77 | 1019.3 | |
| 20260508040127 | 61 | 0.0 | 0.0 | 0.00 | 0.00 | 0.00 | 79 | 1019.3 | |
| 20260508035115 | 62 | 0.0 | 0.0 | 0.00 | 0.00 | 0.00 | 77 | 1019.4 | |
| 20260508034107 | 63 | 0.0 | 0.0 | 0.00 | 0.00 | 0.00 | 73 | 1019.4 | |
| 20260508033155 | 63 | 148 | 1.0 | 2.0 | 0.00 | 0.00 | 0.00 | 73 | 1019.2 |
| 20260508032106 | 63 | 0.0 | 0.0 | 0.00 | 0.00 | 0.00 | 72 | 1019.2 | |
| 20260508031135 | 64 | 0.0 | 0.0 | 0.00 | 0.00 | 0.00 | 72 | 1019.1 | |
| 20260508030107 | 64 | 0.0 | 0.0 | 0.00 | 0.00 | 0.00 | 71 | 1019.0 | |
| 20260508025135 | 64 | 142 | 2.0 | 2.0 | 0.00 | 0.00 | 0.00 | 70 | 1019.1 |
| 20260508024107 | 64 | 132 | 1.0 | 2.0 | 0.00 | 0.00 | 0.00 | 71 | 1019.0 |
| 20260508023115 | 64 | 133 | 1.0 | 1.0 | 0.00 | 0.00 | 0.00 | 70 | 1018.9 |
| 20260508022107 | 64 | 138 | 1.0 | 1.0 | 0.00 | 0.00 | 0.00 | 70 | 1018.7 |
| 20260508021115 | 64 | 117 | 3.0 | 3.0 | 0.00 | 0.00 | 0.00 | 69 | 1018.6 |
| 20260508020108 | 65 | 0.0 | 0.0 | 0.00 | 0.00 | 0.00 | 68 | 1018.7 | |
| 20260508015115 | 65 | 135 | 1.0 | 2.0 | 0.00 | 0.00 | 0.00 | 67 | 1018.8 |
| 20260508014107 | 66 | 128 | 3.0 | 3.0 | 0.00 | 0.00 | 0.00 | 66 | 1018.8 |
| 20260508013155 | 66 | 130 | 3.0 | 3.0 | 0.00 | 0.00 | 0.00 | 66 | 1018.6 |
| 20260508012107 | 66 | 121 | 1.0 | 2.0 | 0.00 | 0.00 | 0.00 | 65 | 1018.6 |
| 20260508011115 | 67 | 143 | 4.0 | 6.0 | 0.00 | 0.00 | 0.00 | 64 | 1018.5 |
| 20260508010108 | 67 | 146 | 3.0 | 5.0 | 0.00 | 0.00 | 0.00 | 64 | 1018.6 |
| 20260508005115 | 68 | 161 | 3.0 | 5.0 | 0.00 | 0.00 | 0.00 | 63 | 1018.5 |
| 20260508004107 | 68 | 113 | 4.0 | 7.0 | 0.00 | 0.00 | 0.00 | 63 | 1018.3 |
| 20260508003114 | 69 | 195 | 4.0 | 5.0 | 0.00 | 0.00 | 0.00 | 62 | 1018.3 |
| 20260508002107 | 69 | 208 | 4.0 | 6.0 | 0.00 | 0.00 | 0.00 | 62 | 1018.6 |
| 20260508001115 | 70 | 147 | 2.0 | 3.0 | 0.00 | 0.00 | 0.00 | 61 | 1018.5 |
| 20260508000107 | 70 | 157 | 5.0 | 8.0 | 0.00 | 0.00 | 0.00 | 59 | 1018.5 |
| 20260507235115 | 71 | 217 | 4.0 | 7.0 | 0.00 | 0.00 | 0.00 | 59 | 1018.4 |
| 20260507234108 | 71 | 124 | 0.0 | 1.0 | 0.00 | 0.00 | 0.00 | 57 | 1018.4 |
| 20260507233115 | 72 | 120 | 3.0 | 3.0 | 0.00 | 0.00 | 0.00 | 54 | 1018.5 |
| 20260507232107 | 72 | 118 | 4.0 | 6.0 | 0.00 | 0.00 | 0.00 | 53 | 1018.4 |
| 20260507231115 | 72 | 112 | 2.0 | 3.0 | 0.00 | 0.00 | 0.00 | 53 | 1018.7 |
| 20260507230108 | 72 | 121 | 1.0 | 1.0 | 0.00 | 0.00 | 0.00 | 53 | 1018.5 |
| 20260507225115 | 72 | 119 | 2.0 | 2.0 | 0.00 | 0.00 | 0.00 | 51 | 1018.6 |
| 20260507224107 | 72 | 135 | 1.0 | 1.0 | 0.00 | 0.00 | 0.00 | 51 | 1018.7 |
| 20260507223115 | 72 | 104 | 2.0 | 2.0 | 0.00 | 0.00 | 0.00 | 50 | 1018.7 |
| 20260507222107 | 73 | 104 | 3.0 | 3.0 | 0.00 | 0.00 | 0.00 | 50 | 1018.9 |
| 20260507221115 | 74 | 119 | 5.0 | 7.0 | 0.00 | 0.00 | 0.00 | 49 | 1018.8 |
| 20260507220107 | 74 | 122 | 3.0 | 5.0 | 0.00 | 0.00 | 0.00 | 48 | 1018.7 |
| 20260507215116 | 74 | 147 | 2.0 | 3.0 | 0.00 | 0.00 | 0.00 | 48 | 1018.9 |
| 20260507214127 | 75 | 105 | 3.0 | 3.0 | 0.00 | 0.00 | 0.00 | 48 | 1018.9 |
| 20260507213155 | 73 | 80 | 3.0 | 5.0 | 0.00 | 0.00 | 0.00 | 47 | 1019.0 |
| 20260507212128 | 75 | 84 | 3.0 | 3.0 | 0.00 | 0.00 | 0.00 | 43 | 1019.2 |
| 20260507211115 | 76 | 0.0 | 0.0 | 0.00 | 0.00 | 0.00 | 40 | 1019.1 | |
| 20260507210107 | 75 | 54 | 2.0 | 3.0 | 0.00 | 0.00 | 0.00 | 43 | 1019.1 |
| 20260507205115 | 74 | 40 | 3.0 | 5.0 | 0.00 | 0.00 | 0.00 | 42 | 1019.2 |
| 20260507204108 | 74 | 49 | 7.0 | 8.0 | 0.00 | 0.00 | 0.00 | 42 | 1019.2 |
| 20260507203115 | 76 | 106 | 2.0 | 2.0 | 0.00 | 0.00 | 0.00 | 41 | 1019.4 |
| 20260507202107 | 75 | 189 | 1.0 | 2.0 | 0.00 | 0.00 | 0.00 | 43 | 1019.7 |
| 20260507201115 | 73 | 87 | 3.0 | 5.0 | 0.00 | 0.00 | 0.00 | 44 | 1019.7 |
| 20260507200107 | 74 | 85 | 3.0 | 3.0 | 0.00 | 0.00 | 0.00 | 42 | 1019.7 |
| 20260507195136 | 75 | 51 | 1.0 | 2.0 | 0.00 | 0.00 | 0.00 | 44 | 1019.9 |
| 20260507194228 | 74 | 328 | 5.0 | 6.0 | 0.00 | 0.00 | 0.00 | 44 | 1020.0 |
| 20260507193157 | 73 | 328 | 5.0 | 6.0 | 0.00 | 0.00 | 0.00 | 45 | 1020.1 |
| 20260507192107 | 72 | 10 | 2.0 | 5.0 | 0.00 | 0.00 | 0.00 | 46 | 1020.3 |
| 20260507191059 | 72 | 29 | 5.0 | 9.0 | 0.00 | 0.00 | 0.00 | 45 | 1020.5 |
| 20260507190033 | 72 | 291 | 6.0 | 7.0 | 0.00 | 0.00 | 0.00 | 45 | 1020.6 |
| 20260507185032 | 71 | 28 | 8.0 | 10.0 | 0.00 | 0.00 | 0.00 | 45 | 1020.4 |
| 20260507184053 | 71 | 168 | 0.0 | 2.0 | 0.00 | 0.00 | 0.00 | 46 | 1020.7 |
| 20260507183033 | 71 | 48 | 7.0 | 8.0 | 0.00 | 0.00 | 0.00 | 46 | 1020.8 |
| 20260507182033 | 71 | 40 | 4.0 | 7.0 | 0.00 | 0.00 | 0.00 | 49 | 1020.9 |
| 20260507181033 | 71 | 331 | 6.0 | 7.0 | 0.00 | 0.00 | 0.00 | 48 | 1021.3 |
| 20260507180033 | 70 | 31 | 2.0 | 5.0 | 0.00 | 0.00 | 0.00 | 52 | 1021.3 |
| 20260507175053 | 69 | 137 | 1.0 | 1.0 | 0.00 | 0.00 | 0.00 | 54 | 1021.6 |
| 20260507174053 | 68 | 255 | 7.0 | 8.0 | 0.00 | 0.00 | 0.00 | 52 | 1021.8 |
| 20260507173033 | 68 | 0.0 | 0.0 | 0.00 | 0.00 | 0.00 | 54 | 1022.0 | |
| 20260507172033 | 68 | 75 | 5.0 | 6.0 | 0.00 | 0.00 | 0.00 | 54 | 1022.3 |
| 20260507171012 | 68 | 102 | 5.0 | 6.0 | 0.00 | 0.00 | 0.00 | 53 | 1022.6 |
| 20260507165947 | 68 | 103 | 3.0 | 3.0 | 0.00 | 0.00 | 0.00 | 53 | 1023.0 |
| 20260507164955 | 67 | 207 | 4.0 | 5.0 | 0.00 | 0.00 | 0.00 | 54 | 1023.0 |
| 20260507164008 | 67 | 0.0 | 0.0 | 0.00 | 0.00 | 0.00 | 55 | 1023.0 | |
| 20260507162956 | 67 | 280 | 7.0 | 8.0 | 0.00 | 0.00 | 0.00 | 58 | 1023.0 |
| 20260507161948 | 66 | 0.0 | 0.0 | 0.00 | 0.00 | 0.00 | 59 | 1022.8 | |
| 20260507160956 | 65 | 55 | 2.0 | 3.0 | 0.00 | 0.00 | 0.00 | 59 | 1023.1 |
| 20260507160008 | 65 | 108 | 2.0 | 2.0 | 0.00 | 0.00 | 0.00 | 59 | 1023.2 |
| 20260507154956 | 65 | 106 | 3.0 | 5.0 | 0.00 | 0.00 | 0.00 | 60 | 1023.1 |
| 20260507154009 | 64 | 7 | 3.0 | 5.0 | 0.00 | 0.13 | 0.00 | 59 | 1023.3 |
| 20260507153016 | 64 | 40 | 5.0 | 6.0 | 0.00 | 0.13 | 0.00 | 63 | 1023.3 |
| 20260507151948 | 62 | 268 | 3.0 | 3.0 | 0.00 | 0.13 | 0.00 | 65 | 1023.5 |
| 20260507150958 | 63 | 54 | 4.0 | 5.0 | 0.00 | 0.13 | 0.00 | 63 | 1023.7 |
| 20260507145948 | 62 | 0.0 | 0.0 | 0.00 | 0.13 | 0.00 | 68 | 1023.5 | |
| 20260507144956 | 62 | 94 | 1.0 | 2.0 | 0.00 | 0.13 | 0.00 | 68 | 1023.5 |
| 20260507143948 | 62 | 256 | 3.0 | 3.0 | 0.00 | 0.13 | 0.00 | 67 | 1023.6 |
| 20260507142957 | 61 | 129 | 1.0 | 2.0 | 0.00 | 0.13 | 0.00 | 69 | 1023.7 |
| 20260507141948 | 60 | 170 | 3.0 | 5.0 | 0.00 | 0.13 | 0.00 | 70 | 1023.8 |
| 20260507140957 | 59 | 17 | 3.0 | 5.0 | 0.00 | 0.13 | 0.00 | 72 | 1024.1 |
| 20260507135948 | 59 | 148 | 4.0 | 5.0 | 0.00 | 0.13 | 0.00 | 73 | 1024.0 |
| 20260507135017 | 58 | 355 | 3.0 | 5.0 | 0.00 | 0.13 | 0.00 | 74 | 1024.1 |
| 20260507133948 | 58 | 168 | 2.0 | 2.0 | 0.00 | 0.13 | 0.00 | 80 | 1024.0 |
| 20260507132956 | 56 | 106 | 1.0 | 2.0 | 0.00 | 0.13 | 0.00 | 81 | 1024.1 |
| 20260507131948 | 55 | 118 | 2.0 | 2.0 | 0.00 | 0.13 | 0.00 | 84 | 1024.0 |
| 20260507131036 | 55 | 207 | 3.0 | 5.0 | 0.00 | 0.13 | 0.00 | 84 | 1024.2 |
| 20260507125948 | 55 | 146 | 1.0 | 2.0 | 0.00 | 0.13 | 0.00 | 84 | 1024.0 |
| 20260507124956 | 55 | 178 | 2.0 | 2.0 | 0.00 | 0.13 | 0.00 | 85 | 1023.8 |
| 20260507123948 | 53 | 156 | 2.0 | 3.0 | 0.00 | 0.13 | 0.00 | 88 | 1023.8 |
| 20260507122957 | 53 | 141 | 1.0 | 1.0 | 0.00 | 0.13 | 0.00 | 90 | 1023.8 |
| 20260507121949 | 52 | 133 | 1.0 | 1.0 | 0.00 | 0.13 | 0.00 | 92 | 1023.6 |
| 20260507120956 | 51 | 131 | 1.0 | 1.0 | 0.00 | 0.13 | 0.00 | 92 | 1023.4 |
| 20260507115949 | 51 | 137 | 1.0 | 1.0 | 0.00 | 0.13 | 0.00 | 92 | 1023.5 |
| 20260507114956 | 51 | 145 | 1.0 | 2.0 | 0.00 | 0.13 | 0.00 | 93 | 1023.1 |
| 20260507113948 | 51 | 172 | 3.0 | 3.0 | 0.00 | 0.13 | 0.00 | 93 | 1023.1 |
| 20260507112957 | 51 | 190 | 3.0 | 3.0 | 0.00 | 0.13 | 0.00 | 93 | 1022.8 |
| 20260507111948 | 51 | 260 | 3.0 | 3.0 | 0.00 | 0.13 | 0.00 | 93 | 1022.6 |
| 20260507110957 | 51 | 167 | 2.0 | 2.0 | 0.00 | 0.13 | 0.00 | 93 | 1022.5 |
| 20260507105948 | 51 | 176 | 2.0 | 2.0 | 0.00 | 0.13 | 0.00 | 92 | 1022.4 |
| 20260507105017 | 51 | 164 | 3.0 | 3.0 | 0.00 | 0.13 | 0.00 | 92 | 1022.5 |
| 20260507103948 | 51 | 156 | 3.0 | 3.0 | 0.00 | 0.13 | 0.00 | 92 | 1022.4 |
| 20260507102924 | 51 | 139 | 2.0 | 2.0 | 0.00 | 0.13 | 0.00 | 92 | 1022.1 |
| 20260507101933 | 52 | 0.0 | 0.0 | 0.00 | 0.13 | 0.00 | 92 | 1021.7 | |
| 20260507100925 | 52 | 129 | 0.0 | 1.0 | 0.00 | 0.13 | 0.00 | 92 | 1021.8 |
| 20260507095933 | 52 | 129 | 1.0 | 1.0 | 0.00 | 0.13 | 0.00 | 92 | 1021.5 |
| 20260507094945 | 52 | 182 | 1.0 | 2.0 | 0.00 | 0.13 | 0.00 | 91 | 1021.4 |
| 20260507093932 | 52 | 66 | 2.0 | 2.0 | 0.00 | 0.13 | 0.00 | 91 | 1021.6 |
| 20260507092924 | 52 | 62 | 1.0 | 2.0 | 0.00 | 0.13 | 0.00 | 92 | 1021.5 |
| 20260507091933 | 52 | 118 | 1.0 | 2.0 | 0.00 | 0.13 | 0.00 | 91 | 1021.5 |
| 20260507090924 | 52 | 139 | 2.0 | 2.0 | 0.00 | 0.13 | 0.00 | 91 | 1021.6 |
| 20260507085933 | 52 | 35 | 2.0 | 2.0 | 0.00 | 0.13 | 0.00 | 91 | 1021.4 |
| 20260507084924 | 52 | 180 | 2.0 | 2.0 | 0.00 | 0.13 | 0.00 | 91 | 1021.3 |
| 20260507083933 | 53 | 182 | 2.0 | 2.0 | 0.00 | 0.13 | 0.00 | 90 | 1021.4 |
| 20260507082924 | 53 | 103 | 1.0 | 1.0 | 0.00 | 0.13 | 0.00 | 90 | 1021.4 |
| 20260507081933 | 53 | 44 | 2.0 | 2.0 | 0.00 | 0.13 | 0.00 | 90 | 1021.1 |
| 20260507080924 | 53 | 111 | 2.0 | 2.0 | 0.00 | 0.13 | 0.00 | 90 | 1021.1 |
| 20260507075932 | 53 | 58 | 3.0 | 3.0 | 0.00 | 0.13 | 0.00 | 89 | 1021.2 |
| 20260507074925 | 53 | 90 | 2.0 | 2.0 | 0.00 | 0.13 | 0.00 | 89 | 1021.0 |
| 20260507073933 | 53 | 106 | 3.0 | 3.0 | 0.00 | 0.13 | 0.00 | 89 | 1020.9 |
| 20260507072925 | 54 | 27 | 2.0 | 3.0 | 0.00 | 0.13 | 0.00 | 88 | 1021.1 |
| 20260507071953 | 54 | 23 | 3.0 | 3.0 | 0.00 | 0.13 | 0.00 | 88 | 1021.2 |
| 20260507070924 | 54 | 107 | 1.0 | 2.0 | 0.00 | 0.13 | 0.00 | 88 | 1021.1 |
| 20260507065933 | 54 | 92 | 1.0 | 2.0 | 0.00 | 0.13 | 0.00 | 87 | 1021.1 |
| 20260507064924 | 54 | 92 | 1.0 | 2.0 | 0.00 | 0.13 | 0.00 | 87 | 1021.1 |
| 20260507063933 | 55 | 80 | 1.0 | 1.0 | 0.00 | 0.13 | 0.00 | 86 | 1021.0 |
| 20260507062925 | 55 | 87 | 2.0 | 2.0 | 0.00 | 0.13 | 0.00 | 86 | 1021.0 |
| 20260507061933 | 55 | 89 | 1.0 | 1.0 | 0.00 | 0.13 | 0.00 | 85 | 1020.9 |
| 20260507060909 | 55 | 75 | 2.0 | 2.0 | 0.00 | 0.13 | 0.00 | 85 | 1020.8 |
| 20260507055916 | 55 | 76 | 1.0 | 2.0 | 0.00 | 0.13 | 0.00 | 85 | 1020.7 |
| 20260507054908 | 56 | 66 | 2.0 | 3.0 | 0.00 | 0.13 | 0.00 | 85 | 1020.7 |
| 20260507053916 | 56 | 76 | 2.0 | 3.0 | 0.00 | 0.13 | 0.00 | 84 | 1020.8 |
| 20260507052949 | 57 | 71 | 2.0 | 3.0 | 0.00 | 0.13 | 0.00 | 83 | 1020.7 |